Location: El Chorro
(10.0985°N, 67.3542°W)
Time: 18:48:16
(UTC+00:00)

DNEPR-1 R/B - Pass Details

Date: 15 November 2025
Orbit: 588 x 1326 km, 64.6° (Epoch: 06 December)

Event Time Altitude Azimuth Distance (km) Brightness Sun altitude
Rises 22:59:36 0° 340° (NNW) 3,178 7.2 -13.9°
Reaches altitude 10° 23:01:48 10° 342° (NNW) 2,345 6.5 -14.4°
Maximum altitude 23:07:13 76° 68° (ENE) 931 4.2 -15.7°
Drops below altitude 10° 23:13:54 10° 154° (SSE) 2,863 6.8 -17.3°
Sets 23:16:48 0° 155° (SSE) 3,931 7.6 -17.9°
